Гаррисберг

США     40°16′21″N   76°51′57″W
темп.,
°C
ветер,
м/с
пор.,
м/с
влажн.,
%
обл.,
%
осадки,
мм/ч
давл.,
гПа
погр.,
м
6 мая, чт
чт623:00+11сз712657 0.0 1014919
02:00+9сз5115672 0.0 1015640
05:00+7ссз511745 0.0 1016661
08:00+8ссз597182 0.0 10181143
11:00+12ссз465494 0.0 10181453
14:00+15ссз3446100 0.0 10161774
17:00+15ссв3349100 0.0 10141335
20:00+11в2266100 0.0 101511
7 мая, пт
пт723:00+9ююв116188 0.0 101510
02:00+6в2276100 0.0 101421
05:00+5в2276100 0.0 101239
08:00+8вюв3669100 0.0 1012247
11:00+13юв3561100 0.0 1010944
14:00+11зюз5790100 1.9 1009518
17:00+10з61091100 1.7 1008709
20:00+7сз31091100 2.5 1010599
8 мая, сб
сб823:00+6сз2694100 0.4 1010214
02:00+5сз5991100 0.4 1009435
05:00+4сз4109128 0.0 1010482
08:00+6ссз4108376 0.0 1012984
11:00+9ссз4862100 0.0 10131464
14:00+13сз575397 0.1 10121894
17:00+15зсз4846100 0.1 10112483
20:00+11зсз3564100 0.1 101385
9 мая, вс
вс923:00+7зсз22705 0.0 101736
02:00+4зсз22750 0.0 101831
05:00+3зсз2279100 0.0 101910
08:00+7з236922 0.0 1020205
11:00+13зюз344840 0.0 10191461
14:00+15юз4646100 0.0 10162101
17:00+10ююз5791100 0.7 1015443
20:00+7юв2599100 5.3 1014252
10 мая, пн
пн1023:00+8юв4798100 2.6 1012358
02:00+7юв3999100 5.4 1009502
05:00+8юв3899100 0.6 1007400
08:00+10ю2595100 0.9 1007297
11:00+14юз31089100 0.1 1005386
14:00+20зюз61484100 1.1 10031360
17:00+15зсз8138768 3.4 1005871
20:00+10ссз7128496 3.5 1011976